CT2IRK-11 Weather Reports


time (UTC)temp
C
wind
direction
speed
KPH
gust
KPH
rain 1hr
cm
rain 24hr
cm
rain mn
cm
humidity
%
barometer
mb
20260905033005 20 44 0.0 0.0 0.00 0.00 0.00 88 1009.8
20260905032005 20 72 0.0 0.0 0.00 0.00 0.00 88 1009.8
20260905031005 20 22 0.0 0.0 0.00 0.00 0.00 87 1009.8
20260905030006 21 22 0.0 0.0 0.00 0.00 0.00 86 1010.0
20260905024005 22 68 0.0 0.0 0.00 0.00 0.00 78 1009.9
20260905023005 22 180 0.0 0.0 0.00 0.00 0.00 76 1009.8
20260905020005 22 184 0.0 0.0 0.00 0.00 0.00 80 1010.1
20260905015005 22 202 0.0 0.0 0.00 0.00 0.00 80 1010.2
20260905014006 22 154 0.0 0.0 0.00 0.00 0.00 79 1010.2
20260905012005 21 190 3.2 9.7 0.00 0.00 0.00 80 1010.3
20260905011005 20 221 0.0 0.0 0.00 0.00 0.00 89 1010.2
20260905010006 20 225 0.0 0.0 0.00 0.00 0.00 88 1010.4
20260905005005 21 231 0.0 0.0 0.00 0.00 0.00 86 1010.3
20260905004005 21 133 0.0 0.0 0.00 0.00 0.00 86 1010.3
20260905003005 21 202 0.0 0.0 0.00 0.00 0.00 85 1010.3
20260905002005 22 96 0.0 0.0 0.00 0.00 0.00 82 1010.3
20260905001005 22 313 0.0 0.0 0.00 0.00 0.00 81 1010.2
20260905000005 22 0 0.0 0.0 0.00 0.00 0.00 81 1010.4
20260904235005 22 68 0.0 0.0 0.00 0.00 0.00 78 1010.5
20260904234005 23 225 0.0 0.0 0.00 0.00 0.00 75 1010.5
20260904233005 23 202 0.0 0.0 0.00 0.00 0.00 73 1010.5
20260904232006 23 208 0.0 0.0 0.00 0.00 0.00 73 1010.5
20260904231005 24 225 0.0 0.0 0.00 0.00 0.00 70 1010.7
20260904230007 24 202 0.0 0.0 0.00 0.00 0.00 71 1010.6
20260904225006 25 200 0.0 1.6 0.00 0.00 0.00 68 1010.7
20260904224005 26 62 0.0 0.0 0.00 0.00 0.00 57 1010.7
20260904223005 26 58 0.0 0.0 0.00 0.00 0.00 56 1010.6
20260904222005 27 17 0.0 0.0 0.00 0.00 0.00 53 1010.8
20260904221006 27 55 0.0 0.0 0.00 0.00 0.00 53 1010.9
20260904220005 27 63 0.0 12.9 0.00 0.00 0.00 54 1010.9
20260904215006 27 62 4.8 12.9 0.00 0.00 0.00 56 1011.1
20260904214005 27 49 3.2 11.3 0.00 0.00 0.00 59 1011.1
20260904213005 26 45 8.0 11.3 0.00 0.00 0.00 62 1010.9
20260904212006 26 63 6.4 12.9 0.00 0.00 0.00 62 1011.1
20260904211005 26 45 0.0 1.6 0.00 0.00 0.00 63 1011.2
20260904210005 26 71 0.0 1.6 0.00 0.00 0.00 63 1011.2
20260904205005 26 22 0.0 0.0 0.00 0.00 0.00 62 1011.2
20260904203005 27 42 0.0 12.9 0.00 0.00 0.00 62 1011.2
20260904202005 27 59 0.0 0.0 0.00 0.00 0.00 66 1011.2
20260904201005 27 35 0.0 0.0 0.00 0.00 0.00 64 1011.0
20260904200005 27 45 0.0 0.0 0.00 0.00 0.00 64 1010.8
20260904195006 27 31 8.0 16.1 0.00 0.00 0.00 62 1010.6
20260904194006 27 33 0.0 1.6 0.00 0.00 0.00 68 1010.6
20260904193005 27 22 0.0 0.0 0.00 0.00 0.00 68 1010.6
20260904192005 27 45 0.0 0.0 0.00 0.00 0.00 70 1010.4
20260904190006 28 315 0.0 0.0 0.00 0.00 0.00 65 1010.6
20260904185005 28 211 0.0 0.0 0.00 0.00 0.00 64 1010.3
20260904184006 28 354 0.0 0.0 0.00 0.00 0.00 64 1010.3
20260904183005 28 35 0.0 0.0 0.00 0.00 0.00 63 1010.6
20260904181005 29 65 0.0 0.0 0.00 0.00 0.00 58 1011.4
20260904180005 29 184 0.0 0.0 0.00 0.00 0.00 59 1011.3
20260904175005 29 148 0.0 0.0 0.00 0.00 0.00 61 1011.0
20260904174005 29 231 0.0 9.7 0.00 0.00 0.00 61 1011.0
20260904173006 30 257 1.6 12.9 0.00 0.00 0.00 57 1011.8
20260904172007 30 180 0.0 11.3 0.00 0.00 0.00 56 1012.1
20260904171008 30 197 6.4 11.3 0.00 0.00 0.00 57 1011.9
20260904170006 30 195 6.4 11.3 0.00 0.00 0.00 57 1011.7
20260904165211 30 170 0.0 0.0 0.00 0.00 0.00 54 1011.5
20260904164005 30 193 0.0 0.0 0.00 0.00 0.00 55 1011.5
20260904163005 30 311 0.0 0.0 0.00 0.00 0.00 56 1010.9
20260904162005 30 294 0.0 0.0 0.00 0.00 0.00 56 1011.8
20260904161005 31 319 0.0 9.7 0.00 0.00 0.00 52 1012.4
20260904160005 31 248 1.6 9.7 0.00 0.00 0.00 52 1012.0
20260904155005 32 223 0.0 1.6 0.00 0.00 0.00 48 1012.1
20260904154005 32 199 0.0 1.6 0.00 0.00 0.00 46 1012.1
20260904153005 32 146 0.0 0.0 0.00 0.00 0.00 46 1011.8
20260904152005 31 78 3.2 9.7 0.00 0.00 0.00 49 1011.5
20260904145005 32 52 0.0 0.0 0.00 0.00 0.00 49 1012.5
20260904143004 31 30 0.0 0.0 0.00 0.00 0.00 49 1012.4
20260904142005 31 320 0.0 0.0 0.00 0.00 0.00 50 1012.3
20260904141005 31 22 0.0 3.2 0.00 0.00 0.00 51 1012.4
20260904135005 32 193 0.0 0.0 0.00 0.00 0.00 49 1013.1
20260904134005 31 212 0.0 0.0 0.00 0.00 0.00 50 1013.1
20260904133005 31 270 0.0 0.0 0.00 0.00 0.00 49 1013.0
20260904131005 32 270 0.0 0.0 0.00 0.00 0.00 46 1013.0
20260904130004 32 270 0.0 0.0 0.00 0.00 0.00 47 1013.3
20260904125005 32 270 0.0 0.0 0.00 0.00 0.00 48 1012.9
20260904124005 31 327 0.0 0.0 0.00 0.00 0.00 50 1012.9
20260904123005 31 270 0.0 0.0 0.00 0.00 0.00 50 1013.2
20260904122005 30 280 0.0 0.0 0.00 0.00 0.00 51 1013.4
20260904121005 30 270 0.0 1.6 0.00 0.00 0.00 53 1013.7
20260904114004 28 10 0.0 0.0 0.00 0.00 0.00 56 1012.9
20260904112005 27 282 1.6 1.6 0.00 0.00 0.00 61 1013.5
20260904111005 27 287 0.0 4.8 0.00 0.00 0.00 64 1013.1
20260904105005 27 356 0.0 1.6 0.00 0.00 0.00 61 1013.6
20260904104005 27 29 0.0 0.0 0.00 0.00 0.00 62 1013.6
20260904103005 27 264 0.0 3.2 0.00 0.00 0.00 61 1013.8
20260904102005 26 136 1.6 9.7 0.00 0.00 0.00 62 1013.8
20260904100005 25 235 6.4 22.5 0.00 0.00 0.00 66 1013.6
20260904095004 23 171 4.8 20.9 0.00 0.00 0.00 73 1012.5
20260904094005 23 30 17.7 20.9 0.00 0.00 0.00 76 1012.5
20260904093004 23 26 8.0 12.9 0.00 0.00 0.00 73 1013.5
20260904092004 24 42 0.0 0.0 0.00 0.00 0.00 72 1013.9
20260904091004 23 215 0.0 0.0 0.00 0.00 0.00 73 1013.9
20260904090004 23 81 0.0 0.0 0.00 0.00 0.00 76 1013.4
20260904082005 23 270 0.0 0.0 0.00 0.00 0.00 76 1013.3
20260904081004 23 35 0.0 0.0 0.00 0.00 0.00 77 1013.5
20260904080004 23 125 0.0 0.0 0.00 0.00 0.00 77 1013.8
20260904074005 22 167 0.0 0.0 0.00 0.00 0.00 77 1013.5
20260904073004 22 192 0.0 1.6 0.00 0.00 0.00 79 1013.6
20260904072005 22 118 0.0 1.6 0.00 0.00 0.00 81 1013.1
20260904071004 22 270 0.0 0.0 0.00 0.00 0.00 87 1013.1
20260904070006 21 22 0.0 0.0 0.00 0.00 0.00 88 1013.0
20260904065005 21 21 0.0 1.6 0.00 0.00 0.00 90 1012.6
20260904064006 21 262 3.2 8.0 0.00 0.00 0.00 88 1012.6
20260904063006 21 58 0.0 0.0 0.00 0.00 0.00 87 1012.0
20260904061007 22 270 0.0 0.0 0.00 0.00 0.00 81 1012.0
20260904060006 22 202 0.0 0.0 0.00 0.00 0.00 81 1011.5
20260904055006 22 45 0.0 0.0 0.00 0.00 0.00 75 1011.6
20260904054005 22 209 0.0 0.0 0.00 0.00 0.00 76 1011.6
20260904053006 22 90 0.0 0.0 0.00 0.00 0.00 83 1011.6
20260904052006 22 7 0.0 0.0 0.00 0.00 0.00 83 1011.3
20260904050005 22 89 0.0 0.0 0.00 0.00 0.00 81 1011.1
20260904044005 23 0 0.0 0.0 0.00 0.00 0.00 73 1010.8
20260904042005 23 52 0.0 0.0 0.00 0.00 0.00 72 1011.2
20260904041006 22 119 0.0 0.0 0.00 0.00 0.00 74 1011.6
20260904040005 22 206 0.0 0.0 0.00 0.00 0.00 74 1011.8
20260904035006 22 295 0.0 0.0 0.00 0.00 0.00 73 1011.8